Tracking 35036 objects as of 15-Aug-2026
HD Live streaming from Space Station
objects crossing your sky now

CUBY-2

Track CUBY-2 now!
10-day predictions


NORAD ID: 69881
Int'l Code: 2026-156N
Launch date: July 7, 2026
Source: Germany (GER)
Launch site: AIR FORCE WESTERN TEST RANGE (AFWTR)
Your satellite tracking list
Your tracking list is empty




NASA's NSSDC Master Catalog

Two Line Element Set (TLE):
1 69881U 26156N   26227.19811308  .00000415  00000-0  47546-4 0  9992
2 69881  97.7451 126.9459 0004522  19.0614 341.0773 14.91047544  5792
Source of the keplerian elements: AFSPC